STARLINK-1741, 46567

Orbit data source: Space-Track

STARLINK-1741, 46567 is a payload satellite owned by SpaceX/Seattle (US) in LEO that was launched on Tue, 06 Oct 2020 UTC via an FALCON 9 launch vehicle from the Air Force Eastern Test Range (AFETR). Payload-class satellites include a variety of spacecraft equipped with specific instruments for various scientific and technological missions. These include communications satellites like Starlink; space stations such as the ISS; scientific satellites like the Hubble; Earth observation satellites from companies like Planet Labs, Umbra, and HawkEye 360; GPS; miniature CubeSats for education and research; and military/defense satellites.

Loading next visibility...
Identifier
46567, 2020-070AM
Orbit
LEO
Country
Flag of USUS
Related business
Manufacturer
SpaceX/Seattle
Mission
Operational Commercial Communications
Bus & Motor
STARLINK, Unknown motor
Mass
260 kg wet, ~248 kg dry
Launch date (UTC)
2020-10-06 (5 years ago)
Launch vehicle
FALCON 9
Launch site
Air Force Eastern Test Range (AFETR)
Object type
Payload
Rocket body
Debris
Shape & HBR
Box + 1 Pan, 10.1 m
Radar Cross Section
13.562 m², Large (>1 m²)

Expand to show TLE details & history
Last TLE update: 18 hours ago

TLE from 18 hours ago
0 STARLINK-1741
1 46567U 20070AM  25294.00002315  .01053474  00000-0  58636-1 0  9993
2 46567  53.0552  63.6570 0001273  82.6302 346.7614 15.10431843  5805
Epoch: 2025-10-21T00:00Z
TLE epoch observation values (Epoch: 2025-10-21T00:00:02.000Z)
Latitude
48.56852°
Longitude
91.8853°
Altitude
539.516 km
Speed
7.599 km/s
True Right ascension
08h 06m 21s
True Declination
48° 23' 33"
Sunlit
Object was in daylight at epoch
Visualization orbit readout
Latitude
Unknown
Longitude
Unknown
Altitude
Unknown
Speed
Unknown
Apparent Right ascension
Unknown
Apparent Declination
Unknown
Sunlit
N/A
Visualization observer readout
Local Sidereal Time
12:47:33
Azimuth
Unknown
Elevation
Unknown
Doppler factor
Unknown
Orbital elements
Apogee altitude
536.033 km
Perigee altitude
534.273 km
Semi-major axis
6,913.29 km
Eccentricity
0.00013
Inclination
53.0552°
RAAN
63.657°
Arg. of periapsis
82.6302°
True anomaly
346.75806°
Mean anomaly
346.7614°
Eccentric anomaly
346.75973°
Mean motion
3.77586 °/min
Orbital period
95.34 mins
BSTAR
0.058636
Loading maneuver chart data...
Computing Atmospheric mass density...

Documentation

Showing up to 5 results
|